KC9MWQ-13 Weather Reports


time (UTC)temp
C
wind
direction
speed
KPH
gust
KPH
rain 1hr
cm
rain 24hr
cm
rain mn
cm
humidity
%
barometer
mb
20260906080728 18 322 1.6 1.6 0.00 0.00 0.00 99 1017.2
20260906080224 18 306 1.6 3.2 0.00 0.00 0.00 99 1017.3
20260906075724 18 15 4.8 8.0 0.00 0.00 0.00 99 1017.5
20260906075218 18 318 1.6 1.6 0.00 0.00 0.00 99 1017.2
20260906074713 18 8 1.6 1.6 0.00 0.00 0.00 99 1017.2
20260906074213 18 8 3.2 3.2 0.00 0.00 0.00 99 1017.1
20260906073707 18 301 0.0 1.6 0.00 0.00 0.00 98 1017.2
20260906073203 18 317 1.6 3.2 0.00 0.00 0.00 98 1017.2
20260906072658 18 342 0.0 0.0 0.00 0.00 0.00 98 1017.2
20260906072154 19 19 1.6 3.2 0.00 0.00 0.00 97 1017.0
20260906071650 19 5 1.6 3.2 0.00 0.00 0.00 97 1017.0
20260906071149 19 314 1.6 3.2 0.00 0.00 0.00 97 1017.2
20260906070646 20 311 0.0 0.0 0.00 0.00 0.00 97 1017.1
20260906070141 20 346 3.2 4.8 0.00 0.00 0.00 98 1017.2
20260906065641 20 313 3.2 3.2 0.00 0.00 0.00 99 1017.2
20260906065136 20 352 1.6 3.2 0.00 0.00 0.00 99 1017.3
20260906064632 20 22 3.2 3.2 0.00 0.00 0.00 99 1017.3
20260906064127 20 311 1.6 3.2 0.00 0.00 0.00 99 1017.2
20260906063622 20 8 0.0 1.6 0.00 0.00 0.00 99 1017.4
20260906063118 19 318 3.2 4.8 0.00 0.00 0.00 99 1017.4
20260906062614 20 305 3.2 4.8 0.00 0.00 0.00 99 1017.3
20260906062112 20 17 3.2 8.0 0.00 0.00 0.00 99 1017.1
20260906061609 20 309 4.8 4.8 0.00 0.00 0.00 99 1017.2
20260906061108 20 339 1.6 3.2 0.00 0.00 0.00 99 1017.2
20260906060605 20 327 3.2 3.2 0.00 0.00 0.00 99 1016.9
20260906055557 20 338 1.6 1.6 0.00 0.00 0.00 99 1017.0
20260906055053 20 50 3.2 4.8 0.00 0.00 0.00 99 1017.0
20260906054552 20 331 3.2 4.8 0.00 0.00 0.00 99 1017.1
20260906054048 20 341 1.6 3.2 0.00 0.00 0.00 99 1016.7
20260906053544 20 302 0.0 1.6 0.00 0.00 0.00 99 1016.9
20260906053039 20 326 0.0 0.0 0.00 0.00 0.00 99 1017.0
20260906052535 20 333 1.6 3.2 0.00 0.00 0.00 99 1016.8
20260906052032 20 315 1.6 1.6 0.00 0.00 0.00 99 1016.7
20260906051527 20 313 0.0 0.0 0.00 0.00 0.00 99 1016.9
20260906051022 20 316 1.6 3.2 0.00 0.00 0.00 99 1016.7
20260906050518 20 320 1.6 1.6 0.00 0.00 0.00 99 1016.7
20260906050012 20 355 1.6 3.2 0.00 0.00 0.00 99 1016.7
20260906045510 20 302 1.6 1.6 0.00 0.00 0.00 99 1016.8
20260906045007 20 304 1.6 1.6 0.00 0.00 0.00 99 1016.9
20260906044502 20 25 4.8 4.8 0.00 0.00 0.00 99 1016.6
20260906043957 20 351 3.2 3.2 0.00 0.00 0.00 99 1016.6
20260906043453 20 307 0.0 0.0 0.00 0.00 0.00 99 1016.7
20260906042949 20 319 1.6 1.6 0.00 0.00 0.00 99 1016.5
20260906042448 20 297 0.0 1.6 0.00 0.00 0.00 99 1016.6
20260906041948 20 301 0.0 1.6 0.00 0.00 0.00 99 1016.8
20260906041444 20 299 0.0 0.0 0.00 0.00 0.00 99 1016.8
20260906040943 20 305 1.6 1.6 0.00 0.00 0.00 99 1016.7
20260906040439 20 298 0.0 0.0 0.00 0.00 0.00 99 1016.7
20260906035934 20 326 1.6 1.6 0.00 1.50 1.50 99 1016.6
20260906035429 20 29 1.6 1.6 0.00 1.50 1.50 99 1016.7
20260906034924 20 328 0.0 1.6 0.00 1.50 1.50 99 1016.6
20260906034419 20 352 3.2 4.8 0.00 1.50 1.50 99 1016.8
20260906033914 20 333 1.6 1.6 0.00 1.50 1.50 99 1016.6
20260906033409 20 29 0.0 0.0 0.00 1.50 1.50 99 1016.6
20260906032905 20 299 0.0 0.0 0.00 1.50 1.50 99 1016.6
20260906032401 20 295 0.0 0.0 0.00 1.50 1.50 99 1016.6
20260906031855 20 298 0.0 0.0 0.00 1.50 1.50 99 1016.5
20260906031351 20 299 0.0 0.0 0.00 1.50 1.50 99 1016.5
20260906030846 20 309 0.0 0.0 0.00 1.50 1.50 99 1016.3
20260906030341 20 304 1.6 1.6 0.00 1.50 1.50 99 1016.6
20260906025835 21 33 6.4 8.0 0.00 1.50 1.50 99 1016.3
20260906025329 21 332 3.2 3.2 0.00 1.50 1.50 99 1016.3
20260906024828 21 315 4.8 8.0 0.00 1.50 1.50 99 1016.4
20260906024328 21 335 3.2 4.8 0.00 1.50 1.50 99 1016.1
20260906023823 21 13 1.6 3.2 0.00 1.50 1.50 99 1015.9
20260906023319 21 47 6.4 8.0 0.00 1.50 1.50 99 1015.9
20260906022814 21 64 4.8 4.8 0.00 1.50 1.50 99 1016.0
20260906022309 21 303 3.2 3.2 0.00 1.50 1.50 99 1016.2
20260906021805 21 318 1.6 3.2 0.00 1.50 1.50 99 1015.7
20260906021304 21 313 1.6 1.6 0.00 1.50 1.50 99 1015.8
20260906020759 21 307 3.2 4.8 0.00 1.50 1.50 99 1016.0
20260906020258 21 286 3.2 4.8 0.00 1.50 1.50 99 1015.8
20260906015753 21 245 0.0 1.6 0.00 1.50 1.50 99 1015.8
20260906015251 22 53 4.8 4.8 0.00 1.50 1.50 99 1015.4
20260906014746 22 317 3.2 3.2 0.00 1.50 1.50 99 1015.6
20260906014242 22 274 1.6 3.2 0.00 1.50 1.50 99 1015.7
20260906013738 22 297 1.6 1.6 0.00 1.50 1.50 99 1015.6
20260906013237 22 343 6.4 11.3 0.00 1.50 1.50 99 1015.3
20260906012733 22 350 4.8 4.8 0.00 1.50 1.50 99 1015.5
20260906012228 22 29 3.2 3.2 0.00 1.50 1.50 99 1015.4
20260906011723 22 306 3.2 3.2 0.00 1.50 1.50 99 1015.2
20260906011223 22 34 4.8 9.7 0.00 1.50 1.50 99 1015.2
20260906010719 22 37 4.8 4.8 0.00 1.50 1.50 99 1015.0
20260906010215 22 13 3.2 4.8 0.00 1.50 1.50 99 1015.1
20260906005709 22 333 1.6 3.2 0.00 1.50 1.50 99 1015.0
20260906005209 22 34 3.2 4.8 0.00 1.50 1.50 99 1014.9
20260906004708 23 315 3.2 3.2 0.00 1.50 1.50 99 1014.9
20260906004203 23 332 3.2 4.8 0.00 1.50 1.50 99 1014.6
20260906003658 23 332 1.6 3.2 0.00 1.50 1.50 99 1015.0
20260906003153 23 317 0.0 1.6 0.00 1.50 1.50 99 1014.7
20260906002648 23 293 1.6 3.2 0.00 1.50 1.50 99 1015.0
20260906002143 23 14 4.8 8.0 0.00 1.50 1.50 99 1014.6
20260906001638 23 11 4.8 4.8 0.00 1.50 1.50 99 1014.3
20260906001138 23 29 4.8 8.0 0.00 1.50 1.50 99 1014.3
20260906000634 23 23 9.7 11.3 0.00 1.50 1.50 99 1014.3
20260906000129 23 340 3.2 3.2 0.00 1.50 1.50 99 1014.1
20260905235628 24 110 4.8 4.8 0.00 1.50 1.50 99 1014.4
20260905235123 24 296 0.0 0.0 0.00 1.50 1.50 99 1014.2
20260905234618 24 7 3.2 3.2 1.07 1.50 1.50 99 1014.7
20260905234114 24 3 3.2 8.0 6.12 1.50 1.50 99 1014.5
20260905233608 25 6 4.8 4.8 7.75 1.30 1.30 99 1014.5
20260905233103 26 35 16.1 20.9 2.59 0.43 0.43 99 1014.7
20260905232558 27 331 4.8 8.0 0.00 0.00 0.00 93 1014.1
20260905232054 27 226 1.6 1.6 0.00 0.00 0.00 93 1014.0
20260905231548 27 304 3.2 3.2 0.00 0.00 0.00 93 1013.7
20260905231045 27 56 6.4 9.7 0.00 0.00 0.00 92 1013.7
20260905230544 28 317 1.6 3.2 0.00 0.00 0.00 90 1013.7
20260905230043 28 297 0.0 0.0 0.00 0.00 0.00 90 1013.7
20260905225537 28 39 1.6 3.2 0.00 0.00 0.00 88 1013.5
20260905225032 28 295 3.2 3.2 0.00 0.00 0.00 88 1013.7
20260905224527 28 310 1.6 3.2 0.00 0.00 0.00 88 1013.8
20260905224026 28 1 3.2 4.8 0.00 0.00 0.00 88 1013.9
20260905223525 28 311 3.2 3.2 0.00 0.00 0.00 88 1013.7
20260905223019 28 310 1.6 1.6 0.00 0.00 0.00 88 1013.7
20260905222514 28 309 1.6 1.6 0.00 0.00 0.00 88 1013.6
20260905222009 28 308 3.2 3.2 0.00 0.00 0.00 88 1013.6
20260905221506 28 345 1.6 1.6 0.00 0.00 0.00 88 1013.7
20260905221002 28 346 6.4 9.7 0.00 0.00 0.00 87 1013.7
20260905220457 28 294 4.8 4.8 0.00 0.00 0.00 88 1013.5
20260905215956 29 297 1.6 1.6 0.00 0.00 0.00 88 1013.6
20260905215452 29 296 3.2 4.8 0.00 0.00 0.00 89 1013.3
20260905214948 29 341 1.6 3.2 0.00 0.00 0.00 88 1013.2
20260905214443 29 303 4.8 8.0 0.00 0.00 0.00 87 1013.4
20260905213938 29 294 4.8 8.0 0.00 0.00 0.00 87 1013.2
20260905213434 29 307 4.8 4.8 0.00 0.00 0.00 87 1013.5
20260905212929 29 291 1.6 1.6 0.00 0.00 0.00 88 1013.2
20260905212424 28 286 3.2 4.8 0.00 0.00 0.00 88 1013.4
20260905211923 29 309 3.2 3.2 0.00 0.00 0.00 88 1013.4
20260905211419 30 337 3.2 3.2 0.00 0.00 0.00 86 1013.2
20260905210914 30 288 1.6 3.2 0.00 0.00 0.00 86 1013.2
20260905210409 29 313 4.8 4.8 0.00 0.00 0.00 87 1013.1
20260905205908 29 339 1.6 3.2 0.00 0.00 0.00 88 1013.4
20260905205404 30 311 3.2 3.2 0.00 0.00 0.00 86 1013.5
20260905204902 30 292 4.8 4.8 0.00 0.00 0.00 86 1013.5
20260905204359 29 333 4.8 4.8 0.00 0.00 0.00 86 1013.4
20260905203857 29 316 4.8 4.8 0.00 0.00 0.00 88 1013.4
20260905203353 31 36 8.0 9.7 0.00 0.00 0.00 86 1013.5
20260905202848 31 332 4.8 4.8 0.00 0.00 0.00 82 1013.4
20260905202343 30 342 8.0 11.3 0.00 0.00 0.00 81 1013.8
20260905201838 30 307 1.6 3.2 0.00 0.00 0.00 83 1013.6
20260905201334 31 343 4.8 4.8 0.00 0.00 0.00 79 1013.8
20260905200828 31 325 3.2 3.2 0.00 0.00 0.00 82 1013.7
20260905200326 30 298 1.6 3.2 0.00 0.00 0.00 83 1013.8
20260905195822 31 277 1.6 3.2 0.00 0.00 0.00 82 1013.8
20260905195317 31 309 1.6 3.2 0.00 0.00 0.00 82 1013.7
20260905194813 31 326 0.0 1.6 0.00 0.00 0.00 82 1013.8
20260905194307 31 313 3.2 3.2 0.00 0.00 0.00 80 1013.9
20260905193806 31 322 4.8 4.8 0.00 0.00 0.00 80 1013.7
20260905193301 31 270 3.2 4.8 0.00 0.00 0.00 79 1013.9
20260905192756 31 283 1.6 3.2 0.00 0.00 0.00 79 1014.2
20260905192253 31 319 4.8 8.0 0.00 0.00 0.00 79 1014.1
20260905191752 31 287 1.6 3.2 0.00 0.00 0.00 80 1014.1
20260905191250 31 358 3.2 4.8 0.00 0.00 0.00 80 1014.1
20260905190749 31 297 0.0 0.0 0.00 0.00 0.00 78 1014.1
20260905190243 31 297 3.2 4.8 0.00 0.00 0.00 80 1014.4
20260905185742 31 261 4.8 8.0 0.00 0.00 0.00 77 1014.2
20260905185237 31 287 3.2 3.2 0.00 0.00 0.00 78 1014.2
20260905184737 31 289 1.6 1.6 0.00 0.00 0.00 79 1014.4
20260905184236 31 274 8.0 9.7 0.00 0.00 0.00 77 1014.2
20260905183735 31 302 3.2 4.8 0.00 0.00 0.00 78 1014.3
20260905183231 31 271 3.2 3.2 0.00 0.00 0.00 77 1014.4
20260905182725 31 294 3.2 3.2 0.00 0.00 0.00 78 1014.5
20260905182225 31 279 3.2 3.2 0.00 0.00 0.00 79 1014.5
20260905181720 31 274 3.2 3.2 0.00 0.00 0.00 79 1014.5
20260905181219 31 272 3.2 3.2 0.00 0.00 0.00 78 1014.6
20260905180714 30 287 1.6 3.2 0.00 0.00 0.00 79 1014.7
20260905180209 30 282 1.6 3.2 0.00 0.00 0.00 80 1014.7
20260905175709 30 292 0.0 0.0 0.00 0.00 0.00 83 1014.6
20260905175203 29 293 0.0 0.0 0.00 0.00 0.00 82 1015.0
20260905174659 30 249 1.6 4.8 0.00 0.00 0.00 81 1014.7
20260905174154 28 281 0.0 1.6 0.00 0.00 0.00 85 1014.9
20260905173650 28 272 0.0 1.6 0.00 0.00 0.00 84 1015.3
20260905173146 27 281 0.0 0.0 0.00 0.00 0.00 85 1015.2
20260905172645 27 284 1.6 1.6 0.00 0.00 0.00 85 1015.4
20260905172139 27 278 1.6 1.6 0.00 0.00 0.00 86 1015.1
20260905171636 27 304 1.6 3.2 0.00 0.00 0.00 87 1015.6
20260905171131 28 284 0.0 1.6 0.00 0.00 0.00 86 1015.6
20260905170628 28 278 0.0 0.0 0.00 0.00 0.00 84 1015.3
20260905170123 28 271 3.2 4.8 0.00 0.00 0.00 84 1015.5
20260905165617 28 291 4.8 11.3 0.00 0.00 0.00 84 1015.4
20260905165113 28 257 1.6 3.2 0.00 0.00 0.00 84 1015.6
20260905164608 27 265 3.2 3.2 0.00 0.00 0.00 84 1015.5
20260905164107 27 157 4.8 4.8 0.00 0.00 0.00 85 1015.6
20260905163603 26 272 1.6 1.6 0.00 0.00 0.00 87 1015.4
20260905163100 27 287 0.0 0.0 0.00 0.00 0.00 86 1015.7
20260905162556 27 273 6.4 8.0 0.00 0.00 0.00 86 1015.8
20260905162055 26 237 6.4 9.7 0.00 0.00 0.00 85 1015.7
20260905161549 27 283 6.4 9.7 0.00 0.00 0.00 84 1015.7
20260905161047 27 176 6.4 8.0 0.00 0.00 0.00 86 1015.9
20260905160546 27 239 1.6 3.2 0.00 0.00 0.00 86 1016.1
20260905160046 27 260 3.2 3.2 0.00 0.00 0.00 88 1015.9
20260905155546 26 283 3.2 3.2 0.00 0.00 0.00 87 1015.9
20260905155044 26 163 4.8 4.8 0.00 0.00 0.00 87 1015.7
20260905154539 25 211 1.6 3.2 0.00 0.00 0.00 90 1015.8
20260905154035 25 270 4.8 8.0 0.00 0.00 0.00 89 1015.7
20260905153531 25 275 3.2 3.2 0.00 0.00 0.00 91 1015.8
20260905153030 25 278 1.6 1.6 0.00 0.00 0.00 91 1015.6
20260905152525 25 264 1.6 3.2 0.00 0.00 0.00 91 1015.6
20260905152021 25 280 1.6 3.2 0.00 0.00 0.00 90 1015.6
20260905151516 25 290 0.0 0.0 0.00 0.00 0.00 90 1015.8
20260905151011 25 252 3.2 4.8 0.00 0.00 0.00 90 1016.0
20260905150506 25 235 3.2 3.2 0.00 0.00 0.00 91 1016.1
20260905150003 24 275 1.6 3.2 0.00 0.00 0.00 91 1015.7
20260905145457 23 278 0.0 0.0 0.00 0.00 0.00 94 1015.6
20260905144956 23 275 0.0 0.0 0.00 0.00 0.00 95 1015.9
20260905144452 22 283 0.0 0.0 0.00 0.00 0.00 96 1015.8
20260905143951 22 282 0.0 0.0 0.00 0.00 0.00 96 1015.6
20260905143450 22 285 0.0 0.0 0.00 0.00 0.00 96 1015.8
20260905142945 22 291 0.0 0.0 0.00 0.00 0.00 96 1015.8
20260905142444 22 285 0.0 0.0 0.00 0.00 0.00 95 1015.6
20260905141939 22 278 0.0 0.0 0.00 0.00 0.00 96 1015.5
20260905141434 22 285 0.0 0.0 0.00 0.00 0.00 96 1015.8
20260905140931 22 293 0.0 0.0 0.00 0.00 0.00 96 1015.6
20260905140425 22 287 0.0 0.0 0.00 0.00 0.00 96 1015.6
20260905135924 22 279 0.0 0.0 0.00 0.00 0.00 95 1015.2
20260905135420 22 276 0.0 0.0 0.00 0.00 0.00 95 1015.2
20260905134915 22 246 4.8 8.0 0.00 0.00 0.00 95 1015.3
20260905134414 22 234 8.0 9.7 0.00 0.00 0.00 95 1015.1
20260905133909 22 272 1.6 3.2 0.00 0.00 0.00 95 1015.2
20260905133404 23 266 3.2 4.8 0.00 0.00 0.00 95 1015.1
20260905132903 22 245 4.8 8.0 0.00 0.00 0.00 97 1015.1
20260905132358 22 283 1.6 1.6 0.00 0.00 0.00 98 1014.9
20260905131852 22 237 4.8 4.8 0.00 0.00 0.00 97 1015.0
20260905131348 22 225 6.4 9.7 0.00 0.00 0.00 96 1015.2
20260905130843 22 270 4.8 8.0 0.00 0.00 0.00 97 1015.3
20260905130342 22 265 4.8 8.0 0.00 0.00 0.00 97 1015.0
20260905125837 22 270 1.6 1.6 0.00 0.00 0.00 98 1015.0
20260905125332 21 280 0.0 1.6 0.00 0.00 0.00 99 1014.6
20260905124828 21 262 1.6 3.2 0.00 0.00 0.00 99 1014.9
20260905124324 21 260 4.8 8.0 0.00 0.00 0.00 99 1015.0
20260905123819 21 178 1.6 4.8 0.00 0.00 0.00 99 1015.2
20260905123316 21 262 3.2 4.8 0.00 0.00 0.00 99 1015.3
20260905122815 21 274 1.6 1.6 0.00 0.00 0.00 99 1015.1
20260905122314 21 275 1.6 1.6 0.00 0.00 0.00 99 1015.1
20260905121810 20 286 3.2 4.8 0.00 0.00 0.00 99 1015.2
20260905121307 20 263 4.8 4.8 0.00 0.00 0.00 99 1015.3
20260905120805 20 241 4.8 8.0 0.00 0.00 0.00 99 1015.4
20260905120301 20 226 1.6 3.2 0.00 0.00 0.00 99 1015.3
20260905115755 20 282 0.0 0.0 0.00 0.00 0.00 99 1015.0
20260905115255 20 237 3.2 3.2 0.00 0.00 0.00 99 1015.2
20260905114754 20 273 1.6 1.6 0.00 0.00 0.00 99 1015.3
20260905114253 20 278 0.0 0.0 0.00 0.00 0.00 99 1015.3
20260905113753 20 286 1.6 3.2 0.00 0.00 0.00 99 1015.2
20260905113249 20 277 1.6 1.6 0.00 0.00 0.00 99 1015.6
20260905112744 20 265 0.0 0.0 0.00 0.00 0.00 99 1015.3
20260905112238 20 260 0.0 0.0 0.00 0.00 0.00 99 1015.3
20260905111733 20 268 3.2 4.8 0.00 0.00 0.00 99 1015.3
20260905111227 20 268 3.2 8.0 0.00 0.00 0.00 99 1015.3
20260905110726 20 210 3.2 4.8 0.00 0.00 0.00 99 1015.2
20260905110221 20 253 3.2 3.2 0.00 0.00 0.00 99 1015.2
20260905105717 20 251 4.8 4.8 0.00 0.00 0.00 99 1015.2
20260905105215 20 273 1.6 1.6 0.00 0.00 0.00 99 1015.0
20260905104710 20 249 1.6 1.6 0.00 0.00 0.00 99 1015.1
20260905104207 20 273 1.6 1.6 0.00 0.00 0.00 99 1015.3
20260905103701 20 264 3.2 3.2 0.00 0.00 0.00 99 1015.4
20260905103157 20 289 0.0 1.6 0.00 0.00 0.00 99 1015.2
20260905102653 20 277 0.0 0.0 0.00 0.00 0.00 99 1015.3
20260905102149 20 239 1.6 3.2 0.00 0.00 0.00 99 1015.4
20260905101648 20 188 6.4 9.7 0.00 0.00 0.00 99 1015.2
20260905101146 20 138 6.4 9.7 0.00 0.00 0.00 99 1015.5
20260905100642 21 186 3.2 3.2 0.00 0.00 0.00 99 1015.4
20260905100137 21 129 4.8 9.7 0.00 0.00 0.00 99 1015.6
20260905095630 21 280 3.2 4.8 0.00 0.00 0.00 99 1015.5
20260905095126 21 245 3.2 3.2 0.00 0.00 0.00 98 1015.5
20260905094621 21 277 1.6 3.2 0.00 0.00 0.00 98 1015.9
20260905094115 21 274 1.6 3.2 0.00 0.00 0.00 97 1015.8
20260905093615 21 287 0.0 0.0 0.00 0.00 0.00 97 1015.9
20260905093111 21 289 0.0 1.6 0.00 0.00 0.00 97 1015.7
20260905092611 21 168 3.2 4.8 0.00 0.00 0.00 97 1015.4
20260905092107 21 290 3.2 3.2 0.00 0.00 0.00 97 1015.4
20260905091606 21 159 3.2 4.8 0.00 0.00 0.00 98 1015.3
20260905091100 21 116 3.2 9.7 0.00 0.00 0.00 98 1015.5
20260905090554 21 1 3.2 8.0 0.00 0.00 0.00 99 1015.7
20260905090050 22 64 6.4 8.0 0.00 0.00 0.00 99 1015.4
20260905085548 23 144 6.4 12.9 0.00 0.00 0.00 99 1015.1
20260905085044 23 247 4.8 4.8 0.00 0.00 0.00 99 1015.1
20260905084544 23 297 0.0 0.0 0.00 0.00 0.00 99 1014.5
20260905084039 23 285 0.0 0.0 0.00 0.00 0.00 99 1014.1
20260905083533 23 282 0.0 0.0 0.00 0.00 0.00 99 1014.3
20260905083030 23 284 0.0 0.0 0.00 0.00 0.00 99 1014.4
20260905082525 23 279 0.0 0.0 0.00 0.00 0.00 99 1014.4
20260905082021 23 270 0.0 0.0 0.00 0.00 0.00 99 1014.1
20260905081515 22 281 0.0 0.0 0.00 0.00 0.00 99 1014.4
20260905081015 22 282 0.0 0.0 0.00 0.00 0.00 99 1014.2